Location: Bailey Volunteer Fire Department
(33.4359°N, 96.1680°W)
Time: 17:59:24
(UTC+00:00)

Cosmos 2208 Rocket - Pass Details

Date: 13 December 2025
Orbit: 751 x 801 km, 74.0° (Epoch: 13 January)

Event Time Altitude Azimuth Distance (km) Brightness Sun altitude
Rises 12:31:31 0° 190° (S) 3,235 7.4 -10.1°
Reaches altitude 10° 12:33:55 10° 189° (S) 2,304 6.7 -9.6°
Maximum altitude 12:39:07 73° 105° (ESE) 798 4.3 -8.6°
Drops below altitude 10° 12:44:17 10° 21° (NNE) 2,288 6.5 -7.6°
Sets 12:46:39 0° 20° (NNE) 3,212 7.2 -7.2°
